Regional Weather Roundup
Issued by NWS Albany, NY

Current Version | Previous Version | Text Only | Print | Product List | Glossary On
Versions: 1 2 3 4 5 6 7 8 9 10 11 12 13 14 15 16 17 18 19 20 21 22 23 24 25 26 27 28 29 30 31 32 33 34 35 36 37 38 39 40 41 42 43 44 45 46 47 48 49
000 ASUS41 KALY 291410 RWRALY NEW YORK STATE HOURLY WEATHER ROUNDUP NATIONAL WEATHER SERVICE ALBANY NY 1000 AM EDT TUE JUL 29 2014 NOTE: "FAIR" INDICATES FEW OR NO CLOUDS BELOW 12,000 FEET WITH NO SIGNIFICANT WEATHER AND/OR NO OBSTRUCTIONS TO VISIBILITY. NYZ032-033-038>043-046>054-057>066-NYZ062>081-291500- EAST CITY SKY/WX TMP DP RH WIND PRES REMARKS ALBANY MOSUNNY 66 54 65 W8 29.85R GLENS FALLS SUNNY 66 53 63 W7 29.83R POUGHKEEPSIE SUNNY 68 54 60 W5 29.85R NEWBURGH MOSUNNY 66 55 68 W12 29.88R MONTGOMERY SUNNY 67 52 58 NW8 29.87R WHITE PLAINS MOSUNNY 68 55 63 NW13 29.86R ISLIP MOSUNNY 73 55 53 NW10 29.83R NEW YORK CITY MOSUNNY 69 53 56 NW10 29.85S CENTRAL PARK SUNNY 68 51 54 VRB3 29.89R $$ NYZ005>009-017-018-044>046-055-056-291500- CENTRAL CITY SKY/WX TMP DP RH WIND PRES REMARKS FULTON MOSUNNY 65 53 65 NW8 29.89R SYRACUSE PTSUNNY 64 54 69 W8 29.89R ROME SUNNY 62 54 74 W8 29.89R ELMIRA CLOUDY 60 54 80 VRB6 29.93R BINGHAMTON CLOUDY 58 53 84 W8 29.92R MONTICELLO PTSUNNY 63 52 67 W10G17 29.91R $$ NYZ026>034-041>043-291500- NORTH CITY SKY/WX TMP DP RH WIND PRES REMARKS WATERTOWN MOSUNNY 64 51 62 NW5 29.88R FORT DRUM NOT AVBL MASSENA SUNNY 61 52 72 W9 29.85R SARANAC LAKE CLOUDY 53 49 86 W6 29.84R PLATTSBURGH SUNNY 64 53 67 W7 29.81R $$ NYZ001>004-010>016-019>021-291500- WEST CITY SKY/WX TMP DP RH WIND PRES REMARKS NIAGARA FALLS PTSUNNY 62 55 77 NW6 29.93R BUFFALO CLOUDY 63 54 72 VRB3 29.94R DUNKIRK CLOUDY 64 53 67 W10 29.95R JAMESTOWN CLOUDY 55 52 88 N3 29.97R WELLSVILLE CLOUDY 58 51 78 W6 29.97R ROCHESTER CLOUDY 63 54 72 W3 29.93R PENN YAN CLOUDY 62 54 74 NW6 29.92R $$ KEY WCI = WIND CHILL INDEX VSB = VISIBILITY HX = HEAT INDEX $$

USA.gov is the U.S. government's official web portal to all federal, state and local government web resources and services.